Skip Page Navigation
NASA JPL Caltech
NASA Logo - Jet Propulsion Laboratory + View the NASA Portal
+ Center for Near-Earth Object Studies
JPL Home Earth Solar System Stars & Galaxies Technology
JPL Solar System Dynamics
BODIES ORBITS EPHEMERIDES TOOLS PHYSICAL DATA DISCOVERY FAQ SITE MAP
JPL Small-Body Database Browser
Search: [ help ]  
266013 (2006 EN36)
Classification: Main-belt Asteroid          SPK-ID: 2266013
Ephemeris | Orbit Diagram | Orbital Elements | Mission Design | Physical Parameters | Discovery Circumstances | Close-Approach Data ]

[ show orbit diagram ]
Orbital Elements at Epoch 2459000.5 (2020-May-31.0) TDB
Reference: JPL 18 (heliocentric ecliptic J2000)
 Element Value Uncertainty (1-sigma)   Units 
e .1331337249619104 4.5306e-08  
a 3.020394726378351 3.0118e-08 au
q 2.618278325600291 1.305e-07 au
i 5.088791772123325 4.2389e-06 deg
node 123.7124979993647 6.133e-05 deg
peri 224.4994100467731 6.435e-05 deg
M 76.83014859804054 1.911e-05 deg
tp 2458591.311750041101
(2019-Apr-17.81175004)
0.0001015 TDB
period 1917.317259867445
5.25
2.8678e-05
7.852e-08
d
yr
n .1877623529164333 2.8084e-09 deg/d
Q 3.422511127156411 3.4128e-08 au
  Orbit Determination Parameters
   # obs. used (total)      337  
   data-arc span      8684 days (23.78 yr)  
   first obs. used      1996-04-18  
   last obs. used      2020-01-27  
   planetary ephem.      DE431  
   SB-pert. ephem.      SB431-N16  
   condition code      0  
   norm. resid. RMS      .62894  
   source      ORB  
   producer      Otto Matic  
   solution date      2020-Feb-25 12:44:05  

Additional Information
 Earth MOID = 1.61444 au 
 Jupiter MOID = 1.99062 au 
 T_jup = 3.227 
[ show covariance matrix ]

Ephemeris | Orbit Diagram | Orbital Elements | Mission Design | Physical Parameters | Discovery Circumstances | Close-Approach Data ]

Physical Parameter Table
Parameter Symbol Value Units Sigma Reference Notes
absolute magnitude H 16.0   n/a MPO454978  

266013 (2006 EN36)          Discovered 2006-Mar-03 by Mt. Lemmon Survey at Mount Lemmon
Reference: 20110218/Numbers.arcLast Updated: 2011-02-22

[ show close-approach data ]
Alternate Designations
 2006 EN36 = 2007 HY86 = 2008 QQ26 
Ephemeris | Orbit Diagram | Orbital Elements | Mission Design | Physical Parameters | Discovery Circumstances | Close-Approach Data ]
ABOUT SSD CREDITS/AWARDS PRIVACY/COPYRIGHT GLOSSARY LINKS
FirstGov 2020-Aug-09 12:49 UT
(server date/time)  
NASA Home Page
Site Manager:   Ryan S. Park
Webmaster  Alan B. Chamberlin